Regional Weather Roundup
Issued by NWS

Home | Current Version | Previous Version | Graphics & Text | Print | Product List | Glossary On
Versions: 1 2 3 4 5 6 7 8 9 10 11 12 13 14 15 16 17 18 19 20 21 22 23 24 25 26 27 28 29 30 31 32 33 34 35 36 37 38 39 40 41 42 43 44 45 46 47 48 49 50
755
ASUS44 KMEG 191710
RWRTN
TENNESSEE HOURLY STATE WEATHER ROUNDUP
NATIONAL WEATHER SERVICE MEMPHIS TN
1200 PM CDT THU APR 19 2018

TNZ002-004-019-021-049-052-054-088>092-191800-
WEST TENNESSEE

CITY           SKY/WX    TMP DP  RH WIND       PRES   REMARKS
MEMPHIS INTL   PTSUNNY   53  34  48 N13G20    30.33R
NWS MEMPHIS      N/A     50 N/A N/A MISG        N/A
JACKSON        PTSUNNY   50  29  44 N13G20    30.33R
DYERSBURG      PTSUNNY   50  30  46 N10G16    30.36R
SOMERVILLE     PTSUNNY   48  30  49 N12G20    30.32R
COVINGTON      PTSUNNY   48  30  49 N10G20    30.35R
UNION CITY     PTSUNNY   46  28  49 N13G23    30.34S
BOLIVAR        PTSUNNY   50  30  46 NW10      30.32R
PARIS          PTSUNNY   46  28  49 N7G13     30.33R
HUNTINGDON     PTSUNNY   46  27  46 N9G15     30.32R
LEXINGTON      PTSUNNY   50  27  40 NW12G21   30.31R
SELMER         PTSUNNY   48  27  43 N10G20    30.29S
SAVANNAH       MOSUNNY   50  32  50 VRB7G22   30.30R
$$

TNZ008-025-027-028-033-062-065-066-191800-
NORTH MIDDLE TENNESSEE

CITY           SKY/WX    TMP DP  RH WIND       PRES   REMARKS
NASHVILLE      PTSUNNY   48  28  46 NW13G20   30.30R
PORTLAND       CLOUDY    43  28  56 W9        30.28R
CLARKSVILLE    CLOUDY    46  28  49 N9G21     30.33R
SMYRNA         PTSUNNY   46  29  51 N14       30.30R
COOKEVILLE     CLOUDY    45  28  53 VRB6G14   30.24R
LIVINGSTON     PTSUNNY   43  28  56 N16       30.22R
GALLATIN       CLOUDY    46  27  46 NW12G20   30.32R
CROSSVILLE     FAIR      44  27  51 N12       30.20R
ROCKWOOD       PTSUNNY   45  27  49 N15G23    30.18S
$$

TNZ061-075-076-078-094-096-097-191800-
SOUTH MIDDLE TENNESSEE

CITY           SKY/WX    TMP DP  RH WIND       PRES   REMARKS
LEWISBURG      PTSUNNY   46  28  49 N14       30.27S
FAYETTEVILLE   PTSUNNY   48  30  49 N15       30.24R
TULLAHOMA      CLOUDY    45  30  57 N9G17     30.25R
WINCHESTER     CLOUDY    45  30  57 N15       30.24R
MCMINNVILLE    CLOUDY    45  28  53 N10G17    30.25R
COLUMBIA       MOSUNNY   48  27  43 N10G20    30.28R
SHELBYVILLE    PTSUNNY   46  30  53 N15       30.27R
$$

TNZ017-018-042-046-047-191800-
NORTHEAST TENNESSEE

CITY           SKY/WX    TMP DP  RH WIND       PRES   REMARKS
TRI CITIES     PTSUNNY   46  31  55 W15G22    30.12R
ELIZABETHTON   CLOUDY    46  30  53 NW15G23   30.10R
$$

TNZ012-013-036-069-073-074-191800-
CENTRAL EAST TENNESSEE

CITY           SKY/WX    TMP DP  RH WIND       PRES   REMARKS
KNOXVILLE      PTSUNNY   50  32  50 NW8       30.17R
OAK RIDGE      PTSUNNY   52  31  44 VRB7      30.20R
DOWNTOWN KNOXV MOSUNNY   50  32  50 N8G15     30.19R
GATLINBURG     CLOUDY    48  32  53 NW9       30.17R
MORRISTOWN     MOSUNNY   48  30  49 N10G18    30.16R
JACKSBORO      CLOUDY    46  28  49 VRB7G15   30.24R
$$

TNZ083-085-099-191800-
SOUTHEAST TENNESSEE

CITY           SKY/WX    TMP DP  RH WIND       PRES   REMARKS
CHATTANOOGA    PTSUNNY   53  31  42 N18G25    30.20R
DAYTON         PTSUNNY   50  36  57 NW10G17   30.20S
$$

SKY/WX REPORTED AS FAIR MEANS FEW OR NO CLOUDS BELOW
12 THOUSAND FEET.





USA.gov is the U.S. government's official web portal to all federal, state and local government web resources and services.